Miscellaneous Local Product
Issued by NWS North Platte, NE

Home | Current Version | Previous Version | Text Only | Print | Product List | Glossary On
Versions: 1 2 3 4 5 6 7 8 9 10 11 12 13 14 15 16 17 18 19 20 21 22 23 24 25 26 27 28 29 30 31 32 33 34 35 36 37 38 39 40 41 42 43 44 45 46 47 48 49 50
433
AXUS43 KLBF 270810
MISLBF


WESTERN AND NORTH CENTRAL NEBRASKA HOURLY WEATHER ROUNDUP
NATIONAL WEATHER SERVICE NORTH PLATTE NE
300 AM CDT FRI MAY 27 2016

NOTE: "FAIR" INDICATES FEW OR NO CLOUDS BELOW 12,000 FEET WITH NO
SIGNIFICANT WEATHER AND/OR OBSTRUCTIONS TO VISIBILITY.

NOTE: STATIONS NOT REPORTING VARIABLES SUCH AS SKY/WEATHER OR
PRESSURE ARE PROVIDED BY RAWS AND APRS NETWORKS AND ARE NOT UNDER
NATIONAL WEATHER SERVICE QUALITY CONTROL.

...OBSERVATIONS IN AND NEAR THE EASTERN PANHANDLE OF NEBRASKA...

CITY           SKY/WX    TMP DP  RH WIND       PRES   REMARKS
PINE RIDGE     CLOUDY    53  48  83 CALM      29.84S
CHADRON        CLOUDY    47  45  93 CALM      29.85S
ALLIANCE       CLOUDY    51  47  86 N9        29.81S
SIDNEY         LGT RAIN  50  47  89 NW8       29.81F
CRESCENT LAKE    N/A     52  51  95 N5          N/A
BIG SPRINGS      N/A     55  53  92 N5          N/A
$$

...OBSERVATIONS IN NORTHERN NEBRASKA AND FAR SOUTHERN SOUTH DAKOTA...

CITY           SKY/WX    TMP DP  RH WIND       PRES   REMARKS
WINNER         MOCLDY    60  51  72 S5        29.75F
VALENTINE      LGT RAIN  56  52  86 NE13      29.80F
THEDFORD       CLOUDY    57  54  89 NE9G16    29.80F
AINSWORTH      LGT RAIN  55  53  91 NW5       29.81F
O`NEILL        CLOUDY    60  57  90 CALM      29.79F
ORD            LGT RAIN  59  56  89 NE26G33   29.66F
BROKEN BOW     MOCLDY    58  55  90 S16G26    29.74R
BUTTE            N/A     60  57  89 S8          N/A
CHAMBERS         N/A     59  55  88 CALM        N/A
EWING            N/A     60  57  89 CALM        N/A
$$

...OBSERVATIONS IN SOUTHWEST NEBRASKA AND FAR NORTHEAST COLORADO...

CITY           SKY/WX    TMP DP  RH WIND       PRES   REMARKS
WRAY           CLOUDY    52  52 100 N9        29.77R
IMPERIAL       PTCLDY    52  49  89 SE7       29.77R
OGALLALA       PTCLDY    55  50  82 N10       29.74S
NORTH PLATTE   CLOUDY    56  54  93 SE20G30   29.72R
MCCOOK         CLEAR     52  49  89 SE9       29.74F
LEXINGTON      CLOUDY    58  56  93 E8        29.76R
PAXTON           N/A     56  52  86 NE3         N/A
STAPLETON        N/A     55  53  94 NW5G14      N/A
GOTHENBURG       N/A     58  53  85 NE12        N/A
CALLAWAY         N/A     57  55  95 E10         N/A
$$

...OBSERVATIONS IN CENTRAL LINCOLN COUNTY AREA...

CITY           SKY/WX    TMP DP  RH WIND       PRES   REMARKS
N.P. AIRPORT   CLOUDY    56  54  93 SE20G30   29.72R
N.P. DOWNTOWN    N/A     57  54  91 E8G16       N/A
N.P. HILLCREST   N/A     57  54  91 E17         N/A
$$

...SOME OBSERVATIONS FROM AROUND THE REGION...

CITY           SKY/WX    TMP DP  RH WIND       PRES   REMARKS
DENVER         LGT RAIN  46  43  89 E5        29.89R FOG
LARAMIE        CLOUDY    36  34  92 E5        29.96F WCI  32
CHEYENNE       CLOUDY    49  37  63 N14       29.90S
SCOTTSBLUFF    CLOUDY    50  43  77 N7        29.84F
RAPID CITY     PTCLDY    50  42  74 N12       29.87S
BISMARCK       CLEAR     47  47 100 CALM      29.83F
PIERRE         CLOUDY    57  51  80 SW5       29.80R
SIOUX FALLS    CLOUDY    58  54  86 S5        29.80F
OMAHA          CLOUDY    64  59  83 S14       29.80S
GRAND ISLAND   CLOUDY    59  53  80 S21G32    29.71F
KANSAS CITY    CLOUDY    63  60  90 E16       29.75F
WICHITA        CLOUDY    61  58  90 E9        29.71R
OKLAHOMA CITY  CLOUDY    66  58  75 CALM      29.66F
DALLAS         CLOUDY    71  65  81 S10       29.68F
AMARILLO       CLEAR     52  42  69 N10       29.76F
DODGE CITY     CLOUDY    57  55  93 NE10      29.67F
HAYS           CLOUDY    28 N/A N/A E16       29.70F WCI  17
GOODLAND       CLOUDY    50  48  93 SE8       29.76F
$$




USA.gov is the U.S. government's official web portal to all federal, state and local government web resources and services.